When you browse on this site, cookies collect data to enhance your experience and personalize the content and advertising you see.
Visit our Privacy Policy to learn more. By continuing to use the site, you agree to this use of cookies and data.

Hourly Weather Córdoba

Today, 10 July, Friday

Time Temperature Precipitation Wind Pressure Humidity
00:00 +9°C° 0 mm 5 mps 721 mmHg 60%
01:00 +8°C° 0 mm 5 mps 721 mmHg 62%
02:00 +8°C° 0 mm 4 mps 720 mmHg 64%
03:00 +8°C° 0 mm 4 mps 720 mmHg 64%
04:00 +8°C° 0 mm 4 mps 719 mmHg 65%
05:00 +9°C° 0 mm 3 mps 719 mmHg 66%
06:00 +9°C° 0 mm 3 mps 719 mmHg 66%
07:00 +9°C° 0 mm 3 mps 719 mmHg 67%
08:00 +9°C° 0 mm 2 mps 720 mmHg 67%
09:00 +12°C° 0 mm 2 mps 720 mmHg 60%
10:00 +14°C° 0 mm 2 mps 720 mmHg 52%
11:00 +16°C° 0 mm 1 mps 720 mmHg 45%
12:00 +17°C° 0 mm 2 mps 720 mmHg 41%
13:00 +18°C° 0 mm 3 mps 720 mmHg 38%
14:00 +19°C° 0 mm 4 mps 719 mmHg 34%
15:00 +18°C° 0 mm 4 mps 720 mmHg 36%
16:00 +18°C° 0 mm 4 mps 720 mmHg 38%
17:00 +17°C° 0 mm 4 mps 720 mmHg 41%
18:00 +14°C° 0 mm 4 mps 721 mmHg 46%
19:00 +13°C° 0 mm 3 mps 722 mmHg 51%
20:00 +11°C° 0 mm 3 mps 723 mmHg 56%
21:00 +11°C° 0 mm 3 mps 724 mmHg 60%
22:00 +10°C° 0 mm 3 mps 724 mmHg 65%
23:00 +9°C° 0 mm 3 mps 725 mmHg 69%

Tomorrow, 11 July, Saturday

Time Temperature Precipitation Wind Pressure Humidity
00:00 +8°C° 0 mm 2 mps 725 mmHg 71%
01:00 +8°C° 0 mm 2 mps 725 mmHg 72%
02:00 +9°C° 0 mm 1 mps 725 mmHg 74%
03:00 +9°C° 0 mm 1 mps 724 mmHg 75%
04:00 +8°C° 0 mm 1 mps 724 mmHg 76%
05:00 +8°C° 0 mm 1 mps 724 mmHg 76%
06:00 +8°C° 0 mm 1 mps 724 mmHg 75%
07:00 +9°C° 0 mm 1 mps 724 mmHg 73%
08:00 +9°C° 0 mm 1 mps 724 mmHg 72%
09:00 +10°C° 0 mm 2 mps 724 mmHg 61%
10:00 +12°C° 0 mm 4 mps 724 mmHg 51%
11:00 +14°C° 0 mm 5 mps 724 mmHg 41%
12:00 +15°C° 0 mm 5 mps 723 mmHg 38%
13:00 +15°C° 0 mm 5 mps 723 mmHg 36%
14:00 +16°C° 0 mm 5 mps 722 mmHg 33%
15:00 +15°C° 0 mm 5 mps 721 mmHg 36%
16:00 +14°C° 0 mm 4 mps 721 mmHg 39%
17:00 +14°C° 0 mm 3 mps 720 mmHg 42%
18:00 +13°C° 0 mm 2 mps 721 mmHg 48%
19:00 +12°C° 0 mm 2 mps 721 mmHg 54%
20:00 +9°C° 0 mm 2 mps 721 mmHg 61%
21:00 +10°C° 0 mm 1 mps 721 mmHg 63%
22:00 +9°C° 0 mm 1 mps 722 mmHg 66%
23:00 +8°C° 0 mm 0 mps 722 mmHg 68%

Day after tomorrow, 12 July, Sunday

Time Temperature Precipitation Wind Pressure Humidity
00:00 +9°C° 0 mm 1 mps 722 mmHg 69%
01:00 +9°C° 0 mm 1 mps 722 mmHg 70%
02:00 +8°C° 0 mm 1 mps 722 mmHg 71%
03:00 +9°C° 0 mm 1 mps 722 mmHg 70%
04:00 +9°C° 0 mm 1 mps 722 mmHg 70%
05:00 +8°C° 0 mm 2 mps 722 mmHg 70%
06:00 +8°C° 0 mm 2 mps 723 mmHg 66%
07:00 +9°C° 0 mm 2 mps 723 mmHg 63%
08:00 +9°C° 0 mm 2 mps 724 mmHg 59%
09:00 +10°C° 0 mm 3 mps 724 mmHg 54%
10:00 +12°C° 0 mm 3 mps 725 mmHg 50%
11:00 +13°C° 0 mm 4 mps 725 mmHg 45%
12:00 +13°C° 0 mm 3 mps 725 mmHg 43%
13:00 +14°C° 0 mm 3 mps 724 mmHg 42%
14:00 +14°C° 0 mm 3 mps 724 mmHg 40%
15:00 +15°C° 0 mm 2 mps 724 mmHg 42%
16:00 +14°C° 0 mm 2 mps 724 mmHg 43%
17:00 +13°C° 0 mm 2 mps 724 mmHg 45%
18:00 +12°C° 0 mm 2 mps 724 mmHg 48%
19:00 +11°C° 0 mm 1 mps 725 mmHg 51%
20:00 +10°C° 0 mm 1 mps 725 mmHg 54%
21:00 +9°C° 0 mm 1 mps 726 mmHg 55%
22:00 +9°C° 0 mm 1 mps 726 mmHg 56%
23:00 +8°C° 0 mm 1 mps 727 mmHg 57%

13 July, Monday

Time Temperature Precipitation Wind Pressure Humidity
00:00 +7°C° 0 mm 2 mps 727 mmHg 58%
01:00 +6°C° 0 mm 2 mps 727 mmHg 59%
02:00 +5°C° 0 mm 2 mps 727 mmHg 60%
03:00 +5°C° 0 mm 2 mps 727 mmHg 60%
04:00 +6°C° 0 mm 1 mps 728 mmHg 61%
05:00 +5°C° 0 mm 1 mps 728 mmHg 61%
06:00 +5°C° 0 mm 1 mps 728 mmHg 62%
07:00 +6°C° 0 mm 1 mps 729 mmHg 62%
08:00 +5°C° 0 mm 0 mps 729 mmHg 62%
09:00 +8°C° 0 mm 1 mps 730 mmHg 56%
10:00 +9°C° 0 mm 1 mps 730 mmHg 49%
11:00 +10°C° 0 mm 2 mps 731 mmHg 42%
12:00 +13°C° 0 mm 2 mps 730 mmHg 40%
13:00 +13°C° 0 mm 3 mps 729 mmHg 38%
14:00 +14°C° 0 mm 3 mps 729 mmHg 36%
15:00 +13°C° 0 mm 3 mps 729 mmHg 37%
16:00 +13°C° 0 mm 3 mps 729 mmHg 39%
17:00 +12°C° 0 mm 3 mps 728 mmHg 41%
18:00 +11°C° 0 mm 3 mps 729 mmHg 45%
19:00 +10°C° 0 mm 3 mps 729 mmHg 50%
20:00 +8°C° 0 mm 2 mps 729 mmHg 55%
21:00 +8°C° 0 mm 2 mps 729 mmHg 57%
22:00 +7°C° 0 mm 2 mps 730 mmHg 58%
23:00 +7°C° 0 mm 2 mps 730 mmHg 60%

14 July, Tuesday

Time Temperature Precipitation Wind Pressure Humidity
00:00 +7°C° 0 mm 2 mps 730 mmHg 61%
01:00 +7°C° 0 mm 2 mps 729 mmHg 63%
02:00 +7°C° 0 mm 2 mps 729 mmHg 64%
03:00 +8°C° 0 mm 1 mps 729 mmHg 65%
04:00 +8°C° 0 mm 1 mps 729 mmHg 66%
05:00 +7°C° 0 mm 1 mps 729 mmHg 67%
06:00 +8°C° 0 mm 1 mps 729 mmHg 66%
07:00 +8°C° 0 mm 1 mps 729 mmHg 65%
08:00 +8°C° 0 mm 1 mps 730 mmHg 64%
09:00 +11°C° 0 mm 1 mps 730 mmHg 56%
10:00 +13°C° 0 mm 2 mps 730 mmHg 48%
11:00 +16°C° 0 mm 3 mps 730 mmHg 41%
12:00 +17°C° 0 mm 3 mps 729 mmHg 39%
13:00 +18°C° 0 mm 4 mps 728 mmHg 37%
14:00 +19°C° 0 mm 5 mps 728 mmHg 35%
15:00 +17°C° 0 mm 5 mps 727 mmHg 37%
16:00 +16°C° 0 mm 5 mps 727 mmHg 39%
17:00 +15°C° 0 mm 5 mps 726 mmHg 41%
18:00 +14°C° 0 mm 5 mps 726 mmHg 45%
19:00 +12°C° 0 mm 4 mps 726 mmHg 48%
20:00 +11°C° 0 mm 4 mps 726 mmHg 52%
21:00 +10°C° 0 mm 4 mps 726 mmHg 53%
22:00 +10°C° 0 mm 4 mps 727 mmHg 55%
23:00 +10°C° 0 mm 4 mps 727 mmHg 56%

15 July, Wednesday

Time Temperature Precipitation Wind Pressure Humidity
00:00 +8°C° 0 mm 4 mps 726 mmHg 57%
01:00 +8°C° 0 mm 4 mps 726 mmHg 58%
02:00 +8°C° 0 mm 4 mps 726 mmHg 59%
03:00 +7°C° 0 mm 4 mps 725 mmHg 60%
04:00 +7°C° 0 mm 4 mps 725 mmHg 61%
05:00 +7°C° 0 mm 4 mps 725 mmHg 62%
06:00 +8°C° 0 mm 3 mps 725 mmHg 62%
07:00 +8°C° 0 mm 3 mps 725 mmHg 62%
08:00 +8°C° 0 mm 3 mps 725 mmHg 62%
09:00 +10°C° 0 mm 3 mps 725 mmHg 55%
10:00 +13°C° 0 mm 4 mps 725 mmHg 49%
11:00 +15°C° 0 mm 4 mps 725 mmHg 42%
12:00 +16°C° 0 mm 5 mps 724 mmHg 41%
13:00 +17°C° 0 mm 5 mps 724 mmHg 39%
14:00 +19°C° 0 mm 5 mps 723 mmHg 38%
15:00 +18°C° 0 mm 4 mps 723 mmHg 39%
16:00 +17°C° 0 mm 4 mps 723 mmHg 41%
17:00 +15°C° 0 mm 4 mps 723 mmHg 43%
18:00 +14°C° 0 mm 3 mps 723 mmHg 47%
19:00 +12°C° 0 mm 3 mps 723 mmHg 51%
20:00 +10°C° 0 mm 3 mps 723 mmHg 55%
21:00 +10°C° 0 mm 3 mps 723 mmHg 56%
22:00 +10°C° 0 mm 3 mps 723 mmHg 57%
23:00 +10°C° 0 mm 3 mps 723 mmHg 58%
Show more